KCIKMI Weather Reports


Display with metric or nautical units.
time (UTC)temp
F
wind
direction
speed
MPH
gust
MPH
rain 1hr
in
rain 24hr
in
rain mn
in
humidity
%
barometer
mb
20260902030011 62 340 0.0 0.0 0.00 1.04 1.04 96 1017.1
20260902024511 62 340 0.0 0.0 0.00 1.04 1.04 96 1016.9
20260902023020 62 339 0.0 0.0 0.00 1.04 1.04 96 1016.9
20260902021508 62 327 0.0 0.0 0.00 1.04 1.04 97 1016.8
20260902020009 62 326 0.0 0.0 0.00 1.04 1.04 97 1016.7
20260902014513 62 326 0.0 0.0 0.00 1.04 1.04 96 1016.8
20260902013007 62 326 0.0 0.0 0.00 1.04 1.04 96 1016.6
20260902012507 62 326 0.0 0.0 0.00 1.04 1.04 96 1016.5
20260902012006 62 326 0.0 0.0 0.00 1.04 1.04 96 1016.7
20260902011506 62 326 0.0 0.0 0.00 1.04 1.04 96 1016.7
20260902011006 62 326 0.0 0.0 0.00 1.04 1.04 96 1016.7
20260902010505 62 327 0.0 0.0 0.00 1.04 1.04 96 1016.7
20260902010005 62 327 0.0 0.0 0.00 1.04 1.04 96 1016.7
20260902005505 62 326 0.0 0.0 0.00 1.04 1.04 96 1016.6
20260902005006 62 326 0.0 0.0 0.00 1.04 1.04 96 1016.5
20260902004505 62 326 0.0 0.0 0.00 1.04 1.04 96 1016.5
20260902004005 62 326 0.0 0.0 0.00 1.04 1.04 96 1016.6
20260902003508 62 326 0.0 0.0 0.00 1.04 1.04 96 1016.6
20260902003005 62 326 0.0 0.0 0.00 1.04 1.04 96 1016.8
20260902002506 62 326 0.0 0.0 0.00 1.04 1.04 97 1016.5
20260902002003 62 326 0.0 0.0 0.00 1.04 1.04 97 1016.5
20260902001503 62 326 0.0 0.0 0.00 1.04 1.04 96 1016.5
20260902001003 62 326 0.0 0.0 0.00 1.04 1.04 97 1016.5
20260902000503 62 326 0.0 0.0 0.00 1.04 1.04 97 1016.5
20260902000007 62 326 0.0 0.0 0.00 1.04 1.04 96 1016.5
20260901235603 62 326 0.0 0.0 0.00 1.04 1.04 97 1016.4
20260901235002 62 326 0.0 0.0 0.00 1.04 1.04 96 1016.4
20260901234502 62 326 0.0 0.0 0.00 1.04 1.04 96 1016.3
20260901234002 62 326 0.0 0.0 0.00 1.04 1.04 97 1016.3
20260901233504 62 326 0.0 0.0 0.00 1.04 1.04 97 1016.2
20260901233005 62 327 0.0 0.0 0.00 1.04 1.04 97 1016.2
20260901232502 62 327 0.0 0.0 0.00 1.04 1.04 97 1016.1
20260901232001 62 327 0.0 0.0 0.00 1.04 1.04 97 1016.1
20260901231501 62 327 0.0 0.0 0.00 1.04 1.04 97 1016.3
20260901231003 62 327 0.0 0.0 0.00 1.04 1.04 97 1016.3
20260901230501 61 327 0.0 0.0 0.01 1.04 1.04 96 1016.4
20260901230003 61 327 0.0 0.0 0.01 1.04 1.04 96 1016.3
20260901225500 61 327 0.0 0.0 0.01 1.04 1.04 97 1016.4
20260901225100 61 327 0.0 0.0 0.01 1.04 1.04 96 1016.3
20260901224600 61 327 0.0 0.0 0.01 1.04 1.04 96 1016.3
20260901224101 61 328 0.0 0.0 0.01 1.04 1.04 96 1016.3
20260901223604 61 328 0.0 0.0 0.01 1.04 1.04 96 1016.2
20260901223100 61 290 0.0 0.0 0.01 1.04 1.04 96 1016.2
20260901222602 61 288 0.0 0.0 0.02 1.04 1.04 96 1016.2
20260901222059 61 288 0.0 0.0 0.02 1.04 1.04 96 1016.2
20260901221611 61 288 0.0 0.0 0.02 1.04 1.04 96 1016.2
20260901221059 61 300 0.0 0.0 0.02 1.04 1.04 96 1016.2
20260901220601 61 263 0.0 0.0 0.01 1.03 1.03 96 1016.4
20260901220059 61 263 0.0 0.0 0.02 1.03 1.03 96 1016.4
20260901215559 61 263 0.0 0.0 0.02 1.03 1.03 96 1016.3
20260901215058 61 221 0.0 0.0 0.02 1.03 1.03 96 1016.3
20260901214559 61 221 0.0 0.0 0.03 1.03 1.03 96 1016.4
20260901214058 61 221 0.0 0.0 0.03 1.03 1.03 96 1016.5
20260901213558 60 211 0.0 0.0 0.03 1.03 1.03 96 1016.4
20260901213058 61 241 0.0 0.0 0.03 1.03 1.03 95 1016.4
20260901212558 61 202 0.0 0.0 0.02 1.02 1.02 95 1016.3
20260901212058 61 322 0.0 0.0 0.02 1.02 1.02 95 1016.3
20260901211557 61 238 0.0 0.0 0.02 1.02 1.02 95 1016.3
20260901211056 61 188 0.0 0.0 0.02 1.02 1.02 95 1016.2
20260901210555 61 259 0.0 0.0 0.02 1.02 1.02 95 1016.2
20260901210053 62 233 0.0 0.0 0.01 1.01 1.01 95 1016.1
20260901205554 62 354 0.0 0.0 0.01 1.01 1.01 95 1016.1
20260901205052 62 38 0.0 0.0 0.02 1.01 1.01 95 1016.1
20260901204551 62 314 0.0 2.0 0.01 1.00 1.00 96 1016.0
20260901204051 63 324 0.0 2.0 0.02 1.00 1.00 96 1015.9
20260901203553 63 351 0.0 2.0 0.03 1.00 1.00 96 1015.8
20260901203056 63 268 0.0 0.0 0.04 1.00 1.00 96 1015.8
20260901202550 63 346 0.0 0.0 0.04 1.00 1.00 96 1015.9
20260901202056 63 346 0.0 0.0 0.05 1.00 1.00 96 1015.8
20260901201551 63 330 0.0 0.0 0.05 1.00 1.00 96 1015.7
20260901201050 63 330 0.0 0.0 0.05 1.00 1.00 96 1015.8
20260901200550 63 330 0.0 0.0 0.06 1.00 1.00 95 1015.8
20260901200050 63 330 0.0 0.0 0.08 1.00 1.00 96 1015.7
20260901195650 63 330 0.0 0.0 0.08 1.00 1.00 95 1015.8
20260901195049 63 340 0.0 0.0 0.08 0.99 0.99 95 1015.8
20260901194549 63 340 0.0 0.0 0.08 0.99 0.99 95 1015.8
20260901194049 63 335 0.0 0.0 0.07 0.98 0.98 95 1015.7
20260901193550 63 337 0.0 0.0 0.06 0.97 0.97 95 1015.7
20260901193048 63 308 0.0 0.0 0.05 0.96 0.96 95 1015.7
20260901192551 63 311 0.0 0.0 0.05 0.96 0.96 95 1015.6
20260901192050 63 311 0.0 0.0 0.04 0.95 0.95 95 1015.5
20260901191548 64 311 0.0 0.0 0.04 0.95 0.95 95 1015.5
20260901191049 64 344 0.0 0.0 0.04 0.95 0.95 95 1015.5
20260901190548 64 344 0.0 0.0 0.04 0.93 0.93 95 1015.4
20260901190048 63 15 0.0 0.0 0.06 0.92 0.92 95 1015.4
20260901185548 63 15 0.0 0.0 0.07 0.91 0.91 95 1015.4
20260901185047 63 17 0.0 0.0 0.09 0.91 0.91 95 1015.3
20260901184547 63 17 0.0 0.0 0.13 0.91 0.91 95 1015.3
20260901184048 63 17 0.0 0.0 0.14 0.91 0.91 95 1015.3
20260901183549 63 140 0.0 1.0 0.14 0.91 0.91 95 1015.2
20260901183110 63 282 0.0 1.0 0.14 0.91 0.91 95 1015.1
20260901182547 63 233 0.0 2.0 0.14 0.91 0.91 95 1015.3
20260901182051 63 309 0.0 2.0 0.14 0.91 0.91 95 1015.3
20260901181546 63 330 0.0 1.0 0.14 0.91 0.91 96 1015.3
20260901181046 63 346 0.0 1.0 0.14 0.91 0.91 96 1015.1
20260901180546 63 202 0.0 3.0 0.12 0.89 0.89 95 1014.9
20260901180046 63 355 0.0 3.0 0.09 0.86 0.86 94 1015.2
20260901175544 63 292 0.0 0.0 0.07 0.84 0.84 94 1014.7
20260901175044 63 195 0.0 0.0 0.05 0.82 0.82 93 1015.4
20260901174545 63 197 0.0 0.0 0.01 0.78 0.78 94 1015.8
20260901174043 63 197 0.0 0.0 0.00 0.77 0.77 93 1015.7
20260901173545 63 197 0.0 0.0 0.00 0.77 0.77 93 1015.6
20260901173052 63 195 0.0 0.0 0.00 0.77 0.77 93 1015.5
20260901172543 63 195 0.0 0.0 0.00 0.77 0.77 93 1015.5
20260901172043 63 187 0.0 0.0 0.00 0.77 0.77 93 1015.4
20260901171551 63 273 0.0 0.0 0.00 0.77 0.77 94 1015.3
20260901171042 63 190 0.0 0.0 0.00 0.77 0.77 93 1015.1
20260901170542 63 353 0.0 0.0 0.00 0.77 0.77 94 1015.1
20260901170052 63 15 0.0 0.0 0.00 0.77 0.77 94 1015.2
20260901165541 63 333 0.0 0.0 0.01 0.77 0.77 95 1015.4
20260901165041 63 332 0.0 0.0 0.01 0.77 0.77 94 1015.4
20260901164545 63 333 0.0 0.0 0.01 0.77 0.77 94 1015.4
20260901164041 63 333 0.0 0.0 0.02 0.77 0.77 94 1015.5
20260901163541 63 244 0.0 0.0 0.03 0.77 0.77 94 1015.5
20260901163103 63 322 0.0 0.0 0.07 0.77 0.77 94 1015.5
20260901162540 63 321 0.0 0.0 0.12 0.77 0.77 94 1015.5
20260901162041 63 204 0.0 1.0 0.16 0.77 0.77 95 1015.5
20260901161549 63 206 0.0 1.0 0.18 0.77 0.77 94 1015.5
20260901161040 63 267 0.0 2.0 0.18 0.77 0.77 94 1015.6
20260901160539 63 218 0.0 2.0 0.19 0.77 0.77 94 1015.5
20260901160041 63 240 0.0 3.0 0.20 0.77 0.77 94 1015.6
20260901155539 63 201 0.0 3.0 0.20 0.76 0.76 93 1015.7
20260901155039 63 265 0.0 0.0 0.21 0.76 0.76 94 1015.8
20260901154538 64 225 0.0 1.0 0.22 0.76 0.76 93 1015.8
20260901154041 64 351 0.0 3.0 0.22 0.75 0.75 93 1015.8
20260901153537 64 199 0.0 3.0 0.23 0.74 0.74 93 1015.8
20260901153036 65 294 0.0 2.0 0.20 0.70 0.70 93 1015.7
20260901152538 65 318 0.0 2.0 0.19 0.65 0.65 94 1015.9
20260901152033 65 299 0.0 1.0 0.17 0.60 0.60 94 1015.9
20260901151537 66 10 0.0 0.0 0.18 0.59 0.59 94 1015.8
20260901151032 66 247 0.0 0.0 0.23 0.59 0.59 94 1015.9
20260901150532 66 311 0.0 0.0 0.27 0.57 0.57 94 1015.8
20260901150033 66 288 0.0 0.0 0.28 0.56 0.56 94 1015.6
20260901145533 66 314 0.0 0.0 0.39 0.56 0.56 94 1015.7
20260901145030 66 316 0.0 0.0 0.39 0.55 0.55 94 1015.8
20260901144533 66 333 0.0 0.0 0.40 0.54 0.54 94 1015.7
20260901144032 66 336 0.0 0.0 0.40 0.53 0.53 94 1015.6
20260901143529 66 301 0.0 0.0 0.38 0.51 0.51 94 1015.6
20260901143029 67 324 0.0 0.0 0.37 0.49 0.49 93 1015.8
20260901142528 67 324 0.0 1.0 0.33 0.45 0.45 93 1016.0
20260901142028 67 334 0.0 2.0 0.32 0.43 0.43 93 1015.9
20260901141533 68 221 0.0 2.0 0.28 0.40 0.40 94 1015.8
20260901141024 68 220 0.0 1.0 0.25 0.35 0.35 93 1015.9
20260901140524 68 220 0.0 1.0 0.22 0.31 0.31 92 1016.3
20260901140024 69 308 0.0 0.0 0.18 0.26 0.26 94 1016.2
20260901135525 69 308 0.0 0.0 0.08 0.16 0.16 94 1016.0
20260901135022 69 308 0.0 0.0 0.10 0.15 0.15 94 1015.9
20260901134523 69 308 0.0 1.0 0.11 0.14 0.14 94 1015.6
20260901134022 69 308 0.0 1.0 0.10 0.13 0.13 94 1015.5
20260901133524 69 303 0.0 0.0 0.12 0.13 0.13 94 1015.4
20260901133022 69 303 0.0 0.0 0.12 0.12 0.12 94 1015.4
20260901132522 69 303 0.0 0.0 0.12 0.12 0.12 94 1015.4
20260901132022 69 302 0.0 0.0 0.11 0.11 0.11 94 1015.4
20260901131523 69 303 0.0 0.0 0.10 0.10 0.10 94 1015.5
20260901131022 69 303 0.0 0.0 0.10 0.10 0.10 93 1015.4
20260901130523 69 289 0.0 0.0 0.09 0.09 0.09 93 1015.4
20260901130021 70 289 0.0 0.0 0.08 0.08 0.08 92 1015.4
20260901125520 70 289 0.0 0.0 0.07 0.07 0.07 92 1015.5
20260901125020 70 289 0.0 0.0 0.05 0.05 0.05 92 1015.4
20260901124520 70 289 0.0 0.0 0.03 0.03 0.03 91 1015.5
20260901124019 70 289 0.0 0.0 0.02 0.02 0.02 91 1015.5
20260901123519 70 289 0.0 0.0 0.01 0.01 0.01 90 1015.5
20260901123030 70 289 0.0 0.0 0.00 0.00 0.00 90 1015.5
20260901122519 70 289 0.0 0.0 0.00 0.00 0.00 89 1015.5
20260901122017 70 289 0.0 0.0 0.00 0.00 0.00 90 1015.5
20260901121519 70 289 0.0 0.0 0.00 0.00 0.00 89 1015.4
20260901121018 70 289 0.0 0.0 0.00 0.00 0.00 89 1015.4
20260901120518 70 197 0.0 0.0 0.00 0.00 0.00 89 1015.4
20260901120117 70 197 0.0 0.0 0.00 0.00 0.00 89 1015.5
20260901115517 70 197 0.0 0.0 0.00 0.00 0.00 89 1015.4
20260901115017 70 197 0.0 0.0 0.00 0.00 0.00 90 1015.4
20260901114515 70 197 0.0 0.0 0.00 0.00 0.00 90 1015.5
20260901114016 70 197 0.0 0.0 0.00 0.00 0.00 90 1015.5
20260901113516 70 197 0.0 0.0 0.00 0.00 0.00 91 1015.5
20260901113016 70 197 0.0 0.0 0.00 0.00 0.00 91 1015.5
20260901112514 70 197 0.0 0.0 0.00 0.00 0.00 91 1015.5
20260901112014 70 197 0.0 0.0 0.00 0.00 0.00 91 1015.4
20260901111513 69 197 0.0 0.0 0.00 0.00 0.00 91 1015.4
20260901111015 69 197 0.0 0.0 0.00 0.00 0.00 91 1015.4
20260901110512 69 197 0.0 0.0 0.00 0.00 0.00 91 1015.3
20260901110012 69 197 0.0 0.0 0.00 0.00 0.00 91 1015.2
20260901105518 69 197 0.0 0.0 0.00 0.00 0.00 91 1015.3
20260901105011 69 197 0.0 0.0 0.00 0.00 0.00 91 1015.3
20260901104611 69 197 0.0 0.0 0.00 0.00 0.00 91 1015.2
20260901104012 69 197 0.0 0.0 0.00 0.00 0.00 91 1015.2
20260901103510 69 197 0.0 0.0 0.00 0.00 0.00 91 1015.1
20260901103011 69 197 0.0 0.0 0.00 0.00 0.00 91 1015.1
20260901102511 69 197 0.0 0.0 0.00 0.00 0.00 91 1015.1
20260901102011 69 197 0.0 0.0 0.00 0.00 0.00 91 1015.1
20260901101513 69 197 0.0 0.0 0.00 0.00 0.00 91 1015.1
20260901101010 69 197 0.0 0.0 0.00 0.00 0.00 90 1015.1
20260901100510 69 197 0.0 0.0 0.00 0.00 0.00 90 1015.0
20260901100010 69 197 0.0 0.0 0.00 0.00 0.00 90 1015.1
20260901095509 69 197 0.0 0.0 0.00 0.00 0.00 90 1015.0
20260901095009 69 197 0.0 0.0 0.00 0.00 0.00 90 1015.0
20260901094509 69 197 0.0 0.0 0.00 0.00 0.00 90 1015.0
20260901094008 69 197 0.0 0.0 0.00 0.00 0.00 90 1015.0
20260901093510 69 197 0.0 0.0 0.00 0.00 0.00 90 1015.0
20260901093009 69 197 0.0 0.0 0.00 0.00 0.00 90 1015.1
20260901092508 69 197 0.0 0.0 0.00 0.00 0.00 89 1015.1
20260901092008 68 197 0.0 0.0 0.00 0.00 0.00 89 1015.0
20260901091507 68 197 0.0 0.0 0.00 0.00 0.00 89 1015.0
20260901091007 68 197 0.0 0.0 0.00 0.00 0.00 89 1015.0
20260901090506 68 197 0.0 0.0 0.00 0.00 0.00 89 1014.9
20260901090009 68 197 0.0 0.0 0.00 0.00 0.00 89 1014.9
20260901085505 68 197 0.0 0.0 0.00 0.00 0.00 89 1014.9
20260901085006 69 197 0.0 0.0 0.00 0.00 0.00 89 1015.0
20260901084504 69 197 0.0 0.0 0.00 0.00 0.00 89 1015.2
20260901084004 69 197 0.0 0.0 0.00 0.00 0.00 89 1015.3
20260901083502 69 197 0.0 0.0 0.00 0.00 0.00 89 1015.4
20260901083002 69 197 0.0 0.0 0.00 0.00 0.00 89 1015.6
20260901082501 69 197 0.0 0.0 0.00 0.00 0.00 88 1015.8
20260901082100 69 197 0.0 0.0 0.00 0.00 0.00 88 1015.9
20260901081559 69 197 0.0 0.0 0.00 0.00 0.00 88 1015.9
20260901081059 69 197 0.0 0.0 0.00 0.00 0.00 88 1015.9
20260901080558 69 197 0.0 0.0 0.00 0.00 0.00 88 1015.9
20260901080111 69 197 0.0 0.0 0.00 0.00 0.00 88 1015.9
20260901075558 69 197 0.0 0.0 0.00 0.00 0.00 88 1015.8
20260901075059 69 197 0.0 0.0 0.00 0.00 0.00 88 1015.8
20260901074616 69 197 0.0 0.0 0.00 0.00 0.00 88 1015.8
20260901074056 69 197 0.0 0.0 0.00 0.00 0.00 88 1015.9
20260901073556 69 197 0.0 0.0 0.00 0.00 0.00 87 1015.9
20260901073054 69 197 0.0 0.0 0.00 0.00 0.00 88 1015.9
20260901072556 69 197 0.0 0.0 0.00 0.00 0.00 88 1015.8
20260901072054 69 197 0.0 0.0 0.00 0.00 0.00 87 1015.6
20260901071553 69 197 0.0 0.0 0.00 0.00 0.00 87 1015.6
20260901071051 69 197 0.0 0.0 0.00 0.00 0.00 87 1015.6
20260901070551 69 197 0.0 0.0 0.00 0.00 0.00 87 1015.7
20260901070049 69 197 0.0 0.0 0.00 0.00 0.00 87 1015.7
20260901065549 69 197 0.0 0.0 0.00 0.00 0.00 87 1015.6
20260901065048 69 197 0.0 0.0 0.00 0.00 0.00 87 1015.6
20260901064547 69 197 0.0 0.0 0.00 0.00 0.00 86 1015.9
20260901064045 69 197 0.0 0.0 0.00 0.00 0.00 86 1016.0
20260901063543 69 197 0.0 0.0 0.00 0.00 0.00 86 1016.1
20260901063049 69 197 0.0 0.0 0.00 0.00 0.00 86 1016.1
20260901062542 69 197 0.0 0.0 0.00 0.00 0.00 86 1016.2
20260901062041 69 197 0.0 0.0 0.00 0.00 0.00 86 1016.3
20260901061539 69 197 0.0 0.0 0.00 0.00 0.00 86 1016.2
20260901061037 69 197 0.0 0.0 0.00 0.00 0.00 86 1016.2
20260901060537 69 197 0.0 0.0 0.00 0.00 0.00 86 1016.1
20260901060041 69 197 0.0 0.0 0.00 0.00 0.00 86 1016.0
20260901055534 69 197 0.0 0.0 0.00 0.00 0.00 86 1016.0
20260901055033 69 197 0.0 0.0 0.00 0.00 0.00 86 1016.1
20260901054531 69 196 0.0 0.0 0.00 0.00 0.00 86 1016.0
20260901054029 69 197 0.0 0.0 0.00 0.00 0.00 86 1016.0
20260901053528 69 197 0.0 0.0 0.00 0.00 0.00 86 1016.1
20260901053029 69 197 0.0 0.0 0.00 0.00 0.00 86 1016.1
20260901052525 69 197 0.0 0.0 0.00 0.00 0.00 86 1016.0
20260901052023 69 197 0.0 0.0 0.00 0.00 0.00 86 1016.0
20260901051522 69 197 0.0 0.0 0.00 0.00 0.00 86 1016.0
20260901051020 69 197 0.0 0.0 0.00 0.00 0.00 86 1016.1
20260901050520 69 197 0.0 0.0 0.00 0.00 0.00 86 1016.3
20260901050019 69 197 0.0 0.0 0.00 0.00 0.00 86 1016.3
20260901045519 69 197 0.0 0.0 0.00 0.00 0.00 86 1016.3
20260901045018 69 197 0.0 0.0 0.00 0.00 0.00 86 1016.3
20260901044518 69 197 0.0 0.0 0.00 0.00 0.00 86 1016.3
20260901044018 69 197 0.0 0.0 0.00 0.00 0.00 86 1016.3
20260901043518 69 197 0.0 0.0 0.00 0.00 0.00 86 1016.3
20260901043017 69 197 0.0 0.0 0.00 0.00 0.00 86 1016.4
20260901042516 69 197 0.0 0.0 0.00 0.00 0.00 86 1016.4
20260901042016 69 197 0.0 0.0 0.00 0.00 0.00 86 1016.4
20260901041515 69 197 0.0 0.0 0.00 0.00 0.00 86 1016.4
20260901041014 69 197 0.0 0.0 0.00 0.00 0.00 86 1016.5
20260901040514 69 197 0.0 0.0 0.00 0.00 0.00 86 1016.5
20260901040013 69 197 0.0 0.0 0.00 0.56 0.00 85 1016.6
20260901035512 69 197 0.0 0.0 0.00 0.56 0.00 86 1016.7
20260901035012 69 195 0.0 0.0 0.00 0.56 0.00 86 1016.7
20260901034510 69 195 0.0 0.0 0.00 0.56 0.00 86 1016.8
20260901034009 69 195 0.0 0.0 0.00 0.56 0.00 85 1016.7
20260901033512 69 195 0.0 0.0 0.00 0.56 0.00 86 1016.7
20260901033008 69 195 0.0 0.0 0.00 0.56 0.00 85 1016.7
20260901032509 69 195 0.0 0.0 0.00 0.56 0.00 85 1016.7
20260901032009 69 195 0.0 0.0 0.00 0.56 0.00 85 1016.6
20260901031509 69 195 0.0 0.0 0.00 0.56 0.00 84 1016.6
20260901031010 69 195 0.0 0.0 0.00 0.56 0.00 84 1016.6
20260901030508 69 195 0.0 0.0 0.00 0.56 0.00 84 1016.5